Create Custom Reports and Graphics: Custom Report

Scotts Valley

Current Conditions

10/24/20 10:30 PM (-07:00)
Updated Every 15 Minutes
Temp 43.1 °F   0.5
Daily Max Temp 77.7 °F   1.3
Daily Min Temp 32.7 °F   2.3
Daily Rain 0.00 In
RH 92 %   6
Dew Pt 40.9 °F   1.4
Wet Bulb 42.4 °F   0.4
Wind Dir NE | 55 °
Wind Spd 0.1 mph   0.0
Wind Gust 0.8 mph   0.1
Leaf Wet 0.0 mins
BatVolt 12.8 V   0.0

Today & Yesterday

Midnight to Midnight

10/24/20 10:30 PM (-07:00)
Updated Every 15 Minutes
Daily Max Temp 77.7 °F   1.3
Daily Min Temp 32.7 °F   2.3
Daily Max Wind 11.9 mph   0.9
Time of Max Wind 1552
Max Wind Dir WSW | 252 °
Daily Leaf Wet Hrs 1.3 hrs   1.3
Daily Rain 0.00 In
Yesterday's Max Temp 79.0 °F
Yesterday’s Min Temp 30.4 °F
Yesterday's Max Wind 11.0 mph
Leaf Wet Hrs Yest 0.0 Hours
Yesterday's Rainfall 0.00 In

Scotts Valley

Rainfall Report

10/24/20 10:30 PM (-07:00)
Updated Every 15 Minutes
Latest Rain 0.00 In
Daily Rain 0.00 In
Yesterday's Rainfall 0.00 In
Monthly Rain 0.00 In
Seasonal Rainfall 0.08 In

Last 48 Hours

Scotts Valley

Hourly Data | America/Los_Angeles
as of 10/24/20 10:37 PM PDT
Date & Time Temp (°F) RH (%) Dew Pt (°F) Wet Bulb (°F) Wind Dir (°) Wind Spd (mph) Wind Gust (mph) Leaf Wet (mins) Latest Rain (In) Daily Rain (In) Daily Max Temp (°F) Daily Min Temp (°F) Daily Leaf Wet Hrs (hrs)
10/24/20 - 2200 45.6 89 42.5 44.5 S | 190 0.2 1.9 0.0 0.00 0.00 77.7 32.7 1.3
10/24/20 - 2100 49.2 84 44.4 47.3 SE | 129 0.4 3.1 0.0 0.00 0.00 77.7 32.7 1.3
10/24/20 - 2000 54.1 75 46.2 50.4 S | 176 1.0 3.7 0.0 0.00 0.00 77.7 32.7 1.3
10/24/20 - 1900 61.4 57 46.0 53.2 SSW | 193 1.3 5.7 0.0 0.00 0.00 77.7 32.7 1.3
10/24/20 - 1800 69.1 40 43.4 54.6 SW | 226 3.3 10.3 0.0 0.00 0.00 77.7 32.7 1.3
10/24/20 - 1700 73.3 28 38.2 53.6 WSW | 252 4.3 11.3 0.0 0.00 0.00 77.7 32.7 1.3
10/24/20 - 1600 75.6 23 35.1 53.2 WSW | 256 4.2 11.9 0.0 0.00 0.00 77.7 32.7 1.3
10/24/20 - 1500 75.5 22 33.8 52.7 S | 181 3.6 11.7 0.0 0.00 0.00 76.4 32.7 1.3
10/24/20 - 1400 73.7 26 36.6 53.2 SSE | 163 3.3 9.9 0.0 0.00 0.00 75.6 32.7 1.3
10/24/20 - 1300 72.2 32 40.9 54.4 ESE | 106 2.8 7.7 0.0 0.00 0.00 73.8 32.7 1.3
10/24/20 - 1200 69.0 36 40.7 53.3 NE | 42 1.6 5.8 0.0 0.00 0.00 70.9 32.7 1.3
10/24/20 - 1100 64.6 42 40.8 51.8 E | 82 1.3 4.2 0.0 0.00 0.00 66.3 32.7 1.3
10/24/20 - 1000 55.9 60 42.0 48.9 ESE | 116 0.4 2.8 0.0 0.00 0.00 62.0 32.7 1.3
10/24/20 - 0900 38.7 96 37.5 38.3 SSW | 195 0.2 1.2 16.8 0.00 0.00 47.1 32.7 1.3
10/24/20 - 0800 33.0 96 32.1 32.6 SSW | 197 0.2 1.4 58.7 0.00 0.00 38.4 32.7 1.0
10/24/20 - 0700 33.6 96 32.5 33.1 SSW | 208 0.4 1.8 1.6 0.00 0.00 38.4 32.9 0.0
10/24/20 - 0600 34.2 96 33.0 33.7 NNW | 330 0.1 1.0 0.0 0.00 0.00 38.4 33.9 0.0
10/24/20 - 0500 35.1 95 33.8 34.5 NW | 312 0.1 1.7 0.0 0.00 0.00 38.4 34.7 0.0
10/24/20 - 0400 35.7 94 34.1 35.1 N | 5 0.1 1.2 0.0 0.00 0.00 38.4 35.2 0.0
10/24/20 - 0300 36.8 93 35.0 36.1 NNE | 12 0.3 1.8 0.0 0.00 0.00 38.4 36.1 0.0
10/24/20 - 0200 37.8 93 35.9 37.0 SSE | 163 0.2 1.5 0.0 0.00 0.00 38.4 37.0 0.0
10/24/20 - 0100 39.1 91 36.8 38.2 ESE | 122 0.0 1.2 0.0 0.00 0.00 79.0 30.4 0.0
10/24/20 - 0000 41.1 88 37.9 39.8 SSE | 159 0.1 1.6 0.0 0.00 0.00 79.0 30.4 0.0
10/23/20 - 2300 43.3 85 39.2 41.6 S | 169 0.1 1.7 0.0 0.00 0.00 79.0 30.4 0.0
10/23/20 - 2200 46.6 80 40.6 44.0 SE | 142 0.1 1.0 0.0 0.00 0.00 79.0 30.4 0.0
10/23/20 - 2100 51.5 69 41.8 47.0 ENE | 59 0.2 1.6 0.0 0.00 0.00 79.0 30.4 0.0
10/23/20 - 2000 58.5 54 41.6 49.9 W | 275 0.7 4.7 0.0 0.00 0.00 79.0 30.4 0.0
10/23/20 - 1900 64.7 38 38.3 50.8 SW | 222 1.8 5.0 0.0 0.00 0.00 79.0 30.4 0.0
10/23/20 - 1800 73.0 27 37.4 53.2 SW | 216 2.8 8.0 0.0 0.00 0.00 79.0 30.4 0.0
10/23/20 - 1700 76.4 24 36.4 53.9 SW | 217 3.5 10.1 0.0 0.00 0.00 79.0 30.4 0.0
10/23/20 - 1600 77.8 22 36.3 54.2 SSW | 209 4.5 11.2 0.0 0.00 0.00 79.0 30.4 0.0
10/23/20 - 1500 76.9 20 32.9 52.9 SSE | 159 3.5 9.6 0.0 0.00 0.00 78.7 30.4 0.0
10/23/20 - 1400 74.5 18 28.4 50.8 SE | 129 2.3 7.0 0.0 0.00 0.00 76.4 30.4 0.0
10/23/20 - 1300 71.8 18 25.4 49.1 SE | 130 2.3 5.9 0.0 0.00 0.00 72.8 30.4 0.0
10/23/20 - 1200 68.4 22 28.5 48.8 ENE | 59 2.0 7.2 0.0 0.00 0.00 70.5 30.4 0.0
10/23/20 - 1100 64.7 27 29.8 47.8 NE | 43 1.7 5.0 0.0 0.00 0.00 66.9 30.4 0.0
10/23/20 - 1000 55.9 40 31.6 44.7 NE | 51 0.5 3.2 0.0 0.00 0.00 62.4 30.4 0.0
10/23/20 - 0900 36.7 80 31.0 34.3 NE | 42 0.3 2.3 0.0 0.00 0.00 47.5 30.4 0.0
10/23/20 - 0800 30.7 86 27.0 29.2 W | 259 0.1 2.0 0.0 0.00 0.00 37.3 30.4 0.0
10/23/20 - 0700 31.5 83 27.1 29.8 SE | 126 0.0 1.6 0.0 0.00 0.00 37.3 30.9 0.0
10/23/20 - 0600 32.4 82 27.4 30.6 SSE | 156 0.3 1.5 0.0 0.00 0.00 37.3 31.8 0.0
10/23/20 - 0500 33.2 79 27.4 31.0 N | 0 0.0 0.0 0.0 0.00 0.00 37.3 32.6 0.0
10/23/20 - 0400 34.2 76 27.6 31.7 N | 0 0.0 0.0 0.0 0.00 0.00 37.3 33.5 0.0
10/23/20 - 0300 35.2 73 27.3 32.2 ESE | 120 0.0 1.0 0.0 0.00 0.00 37.3 34.5 0.0
10/23/20 - 0200 36.5 70 27.5 33.1 SSE | 168 0.1 1.6 0.0 0.00 0.00 37.3 35.8 0.0
10/23/20 - 0100 38.1 66 27.7 34.1 S | 169 0.1 1.3 0.0 0.00 0.00 81.5 36.4 2.9
10/23/20 - 0000 40.3 60 27.5 35.3 SE | 139 0.1 0.8 0.0 0.00 0.00 81.5 36.4 2.9
10/22/20 - 2300 42.2 56 27.5 36.4 S | 176 0.2 1.5 0.0 0.00 0.00 81.5 36.4 2.9
10/22/20 - 2200 45.0 49 27.2 37.8 SSW | 204 0.4 2.9 0.0 0.00 0.00 81.5 36.4 2.9
Max 77.8 96 46.2 54.6 - 4.5 11.9 58.7 0.00 0.00 81.5 37.0 2.9
Avg 51.9 60 34.7 43.1 - 1.2 4.1 1.6 0.00 - - - -
Min 30.7 18 25.4 29.2 - 0.0 0.0 0.0 0.00 0.00 37.3 30.4 0.0
Total - - - - - - - - 0.00 - - - -

Last 30 Days

Scotts Valley

Daily Data | America/Los_Angeles
as of 10/24/20 10:37 PM PDT
Date Daily Max Temp (°F) Time of Max Temp Daily Min Temp (°F) Time of Min Temp Daily Rain (In) Monthly Rain (In) Seasonal Rainfall (In) Wind Spd (mph) Daily Max Wind (mph) Time of Max Wind Max Wind Dir (°) Dew Pt (°F) Max RH (%) Min RH (%) Hrs <= 32F (hrs) Hrs <= 28F (hrs) Chilling <=45F (hrs) Chill Hrs 32-45F (hrs) Utah Chilling (Units) GDDs (DL) GDDs (Mx/Mn) Seas GDDs (DL) Seas GDDs (Smpl) Hrs 70-85F (hrs) Hrs > 95F (hrs) Powdery Mildew Stress (pts) Degree Hrs (hrs) Bat Volt Min Day (V)
10/23/20 79.0 1514 30.4 0732 0.00 0.00 0.08 1.1 11.0 1538 SSW | 202 32.7 92 16 2.3 0.0 11.0 8.7 4.5 8.9 4.7 3,367 3,162 6.03 0.00 40 63.7 12.5
10/22/20 81.5 1442 36.4 0739 0.00 0.00 0.08 1.1 9.7 1715 ENE | 78 31.3 99 7 0.0 0.0 11.1 11.1 4.5 10.2 8.9 3,358 3,157 7.68 0.00 20 94.4 12.5
10/21/20 89.8 1610 36.5 0741 0.00 0.00 0.08 1.0 9.1 1702 NW | 304 40.8 98 15 0.0 0.0 8.1 8.1 3.0 13.1 13.2 3,348 3,148 4.38 0.00 0 141.1 12.5
10/20/20 92.8 1719 36.4 0724 0.00 0.00 0.08 0.9 9.0 1608 SSE | 153 40.7 98 11 0.0 0.0 7.7 7.7 3.0 13.5 14.6 3,334 3,135 3.33 0.00 0 156.9 12.5
10/19/20 91.0 1548 37.4 0722 0.00 0.00 0.08 0.9 7.2 1327 SE | 132 39.3 95 13 0.0 0.0 7.6 7.6 3.0 13.7 14.2 3,321 3,120 3.30 0.00 0 156.4 12.5
10/18/20 92.5 1602 38.6 0715 0.00 0.00 0.08 1.0 9.7 1505 WSW | 258 37.4 88 10 0.0 0.0 6.9 6.9 2.5 14.8 15.5 3,307 3,106 3.12 0.00 0 176.0 12.5
10/17/20 96.8 1510 37.1 0737 0.00 0.00 0.08 1.0 10.2 1605 W | 270 32.6 85 6 0.0 0.0 7.5 7.5 2.0 16.8 17.0 3,292 3,091 2.22 2.06 0 220.1 12.5
10/16/20 96.2 1645 36.7 0724 0.00 0.00 0.08 0.9 8.2 1428 ESE | 117 33.4 91 7 0.0 0.0 8.2 8.2 3.0 15.7 16.4 3,276 3,074 2.12 0.94 0 205.9 12.5
10/15/20 94.5 1603 40.2 0731 0.00 0.00 0.08 1.0 9.4 1603 SE | 138 38.4 97 8 0.0 0.0 5.7 5.7 3.0 14.6 17.4 3,260 3,057 1.96 0.00 10 190.2 12.5
10/14/20 92.7 1635 42.6 0742 0.00 0.00 0.08 1.0 8.2 1743 W | 277 45.3 99 12 0.0 0.0 1.9 1.9 1.5 15.0 17.7 3,245 3,040 4.07 0.00 20 167.2 12.6
10/13/20 90.5 1540 39.4 0657 0.00 0.00 0.08 1.4 15.3 1440 N | 351 45.4 100 18 0.0 0.0 7.3 7.3 0.5 15.8 14.9 3,230 3,022 2.90 0.00 30 168.7 12.5
10/12/20 87.1 1624 36.4 0732 0.00 0.00 0.08 1.1 10.6 1651 SW | 232 41.9 100 13 0.0 0.0 7.5 7.5 2.0 12.8 11.7 3,215 3,007 5.08 0.00 40 125.7 12.6
10/11/20 81.4 1621 38.7 0740 0.00 0.00 0.08 1.2 9.0 1601 WSW | 252 43.3 100 17 0.0 0.0 4.1 4.1 2.5 10.7 10.0 3,202 2,996 6.14 0.00 50 72.8 12.6
10/10/20 69.9 1616 46.2 0134 0.00 0.00 0.08 1.6 15.0 1257 WNW | 283 51.9 99 60 0.0 0.0 0.0 0.0 1.5 7.7 8.0 3,191 2,986 0.00 0.00 30 16.7 12.5
10/9/20 79.2 1610 34.9 0558 0.00 0.00 0.08 1.4 10.2 1531 SW | 226 42.9 100 16 0.0 0.0 7.6 7.6 1.0 10.8 7.1 3,183 2,977 6.46 0.00 40 73.5 12.6
10/8/20 80.1 1422 39.8 0250 0.00 0.00 0.08 1.2 11.8 1556 W | 275 41.2 96 18 0.0 0.0 9.2 9.2 3.5 10.1 10.0 3,173 2,970 7.52 0.00 20 83.6 12.5
10/7/20 88.8 1437 31.8 0726 0.00 0.00 0.08 1.2 11.8 1536 SW | 217 33.2 98 4 0.5 0.0 9.2 8.7 -5.0 13.1 10.3 3,163 2,960 3.35 0.00 0 151.1 12.5
10/6/20 93.8 1609 35.2 0723 0.00 0.00 0.08 1.0 9.4 1709 W | 261 35.4 97 7 0.0 0.0 8.6 8.6 3.0 15.2 14.5 3,149 2,950 2.31 0.00 0 187.4 12.5
10/5/20 93.3 1640 35.8 0724 0.00 0.00 0.08 0.8 7.8 1308 SE | 130 35.0 92 7 0.0 0.0 8.0 8.0 3.0 15.0 14.6 3,134 2,936 2.45 0.00 0 185.4 12.5
10/4/20 95.0 1632 36.2 0727 0.00 0.00 0.08 1.0 9.2 1654 SW | 223 33.2 92 6 0.0 0.0 6.6 6.6 3.0 16.0 15.6 3,119 2,921 2.60 0.00 0 203.1 12.5
10/3/20 97.1 1509 40.8 0721 0.00 0.00 0.08 1.7 18.1 1557 W | 264 33.4 93 6 0.0 0.0 4.0 4.0 -5.5 20.6 19.0 3,103 2,905 3.41 3.59 0 278.7 12.5
10/2/20 95.4 1636 46.7 0724 0.00 0.00 0.08 0.8 10.7 1744 WSW | 250 42.7 90 11 0.0 0.0 0.0 0.0 0.5 16.8 21.0 3,083 2,887 2.66 0.22 0 192.4 12.5
10/1/20 94.3 1504 47.0 0716 0.00 0.00 0.08 0.3 4.3 1657 SW | 232 45.7 83 11 0.0 0.0 0.0 0.0 0.5 16.6 20.6 3,066 2,865 2.30 0.00 10 189.4 12.5
9/30/20 100.6 1626 42.4 0730 0.00 0.00 0.08 0.9 10.3 1748 WNW | 299 38.4 90 7 0.0 0.0 3.4 3.4 0.5 19.7 21.5 3,049 2,845 2.00 4.15 20 261.0 12.5
9/29/20 96.2 1556 42.3 0713 0.00 0.00 0.08 0.7 8.3 1424 SE | 144 37.8 86 7 0.0 0.0 3.9 3.9 1.0 16.7 19.3 3,030 2,823 2.02 1.11 30 206.3 12.5
9/28/20 98.0 1650 43.8 0715 0.00 0.00 0.08 0.8 6.7 1459 SE | 130 36.8 79 6 0.0 0.0 1.4 1.4 1.0 17.8 20.9 3,013 2,804 2.26 1.70 40 225.5 12.6
9/27/20 96.1 1452 42.3 0658 0.00 0.00 0.08 1.6 11.8 1632 ENE | 77 39.8 99 6 0.0 0.0 2.4 2.4 0.0 18.7 19.2 2,995 2,783 2.22 0.29 50 230.4 12.6
9/26/20 85.4 1500 51.3 0056 0.00 0.00 0.08 1.9 15.0 1551 WSW | 255 51.8 95 29 0.0 0.0 0.0 0.0 0.5 18.0 18.4 2,976 2,764 10.36 0.00 60 150.9 12.6
9/25/20 84.8 1444 40.5 0549 0.00 0.00 0.08 1.5 13.2 1652 W | 277 44.1 98 15 0.0 0.0 6.6 6.6 0.0 13.8 12.6 2,958 2,746 8.31 0.00 40 117.5 12.6
9/24/20 80.6 1508 45.6 0059 0.00 0.00 0.08 1.9 15.8 1611 WSW | 255 50.1 99 32 0.0 0.0 0.0 0.0 2.0 12.9 13.1 2,945 2,733 9.10 0.00 20 103.2 12.6
Max 100.6 - 51.3 - 0.00 0.00 - 1.9 18.1 - - 51.9 100 60 2.3 0.0 11.1 11.1 4.5 20.6 21.5 - - 10.36 4.15 60 278.7 12.6
Avg - - - - - 0.00 - 1.1 - - - 39.9 - - 0.1 0.0 5.5 5.4 1.5 14.5 14.7 - - 4.05 0.47 - - -
Min 69.9 - 30.4 - 0.00 0.00 - 0.3 4.3 - - 31.3 79 4 0.0 0.0 0.0 0.0 -5.5 7.7 4.7 - - 0.00 0.00 0 16.7 12.5
Total - - - - - - - - - - - - - - 2.8 0.0 165.5 162.7 45.5 435.0 441.8 - - 121.64 14.07 - - -

Climate Summary

Scotts Valley

Current Year | Showing 1/1/20 - 10/23/20
as of 10/24/20 10:37 PM PDT
Temperature (°F) Precip (in) Days
Month Days Avg Max Avg Min Max Max Min Min Total Daily Min Temp < 28 Daily Min Temp < 32 Daily Max Temp > 90 Daily Max Temp > 100 Daily Rain > 0.01 Daily Rain > 0.1
Jan 2020 31 56.1 31.6 72.9 21.2 2.5 10 20 0 0 13 5
Feb 2020 29 67.8 27.1 77.4 19.7 0 19 26 0 0 0 0
Mar 2020 31 61.3 31.2 80.9 23 1.02 6 21 0 0 8 5
Apr 2020 30 71.3 37.4 87.3 23.8 0.71 2 7 0 0 4 3
May 2020 31 77.8 40.1 96.3 28.4 1.08 0 4 8 0 5 4
Jun 2020 30 86.7 46.2 105.4 31.1 0 0 1 15 3 0 0
Jul 2020 31 94.5 47.6 99.7 39.7 0 0 0 26 0 0 0
Aug 2020 31 95.9 50.9 104.1 40.7 0.09 0 0 28 4 2 0
Sep 2020 30 91.1 44 109.7 35.1 0 0 0 16 4 0 0
Oct 2020 23 89.2 38.3 97.1 30.4 0 0 2 14 0 0 0
Total 297 - - - - 5.4 37 81 107 11 32 17
Average 29.7 79.2 39.4 - - 0.54 3.7 8.1 10.7 1.1 3.2 1.7
Maximum 31 95.9 50.9 109.7 - 2.5 19 26 28 4 13 5
Minimum 23 56.1 27.1 - 19.7 0 0 0 0 0 0 0

Climate Summary

Scotts Valley

Last Year | Showing 1/1/19 - 12/31/19
as of 10/24/20 10:37 PM PDT
Temperature (°F) Precip (in) Days
Month Days Avg Max Avg Min Max Max Min Min Total Daily Min Temp < 28 Daily Min Temp < 32 Daily Max Temp > 90 Daily Max Temp > 100 Daily Rain > 0.01 Daily Rain > 0.1
Jan 2019 31 57.6 34.2 74 20.7 8.2 8 13 0 0 12 11
Feb 2019 28 49.3 32 56.8 18.1 15.8 10 15 0 0 18 14
Mar 2019 31 59.1 34.5 73.8 24.4 6.02 3 13 0 0 13 11
Apr 2019 30 71.4 41.4 88.6 31.4 0.42 0 1 0 0 6 1
May 2019 31 73.6 40.4 85.9 30.2 2.86 0 1 0 0 7 5
Jun 2019 30 88 46.4 99.6 34.9 0 0 0 12 0 0 0
Jul 2019 31 90.1 47.6 100.9 40.2 0 0 0 18 1 0 0
Aug 2019 31 93.1 48.8 101.9 42.6 0 0 0 22 5 0 0
Sep 2019 30 85.1 41.8 102.2 30.6 0.17 0 2 11 1 2 1
Oct 2019 27 78 28.3 91.8 15.2 0.07 13 20 2 0 1 0
Nov 2019 30 70.2 28.4 83.9 18.1 2.15 15 23 0 0 3 3
Dec 2019 31 53.2 34.5 63 18.9 6.9 8 14 0 0 18 10
Total 361 - - - - 42.59 57 102 65 7 80 56
Average 30.1 72.4 38.2 - - 3.55 4.8 8.5 5.4 0.6 6.7 4.7
Maximum 31 93.1 48.8 102.2 - 15.8 15 23 22 5 18 14
Minimum 27 49.3 28.3 - 15.2 0 0 0 0 0 0 0
Calm: 6.2%
Calm: 1.5%